Location: Roland
(31.1349°N, 85.4372°W)
Time: 23:43:00
(UTC+00:00)

Transit 2A - All Passes

Search period start: 18 April 2021 00:00
Search period end: 28 April 2021 00:00
Orbit: 602 x 957 km, 66.7° (Epoch: 18 April)

Date Brightness Start Highest point End Pass type
(mag) Time Alt. Az. Time Alt. Az. Time Alt. Az.
18 Apr - 12:12:07 10° S 12:17:00 48° ESE 12:21:28 10° NE daylight
18 Apr - 13:57:33 10° W 14:00:15 15° NW 14:02:50 10° NNW daylight
18 Apr - 21:05:47 10° NE 21:07:07 11° NE 21:08:29 10° ENE daylight
18 Apr - 22:46:00 10° NNW 22:50:30 63° WSW 22:55:24 10° SSE daylight
19 Apr - 11:38:31 10° S 11:42:53 30° ESE 11:46:56 10° NE daylight
19 Apr - 13:22:06 10° WSW 13:25:56 23° WNW 13:29:34 10° N daylight
19 Apr - 22:11:49 10° NNW 22:16:21 79° ENE 22:21:18 10° SSE daylight
20 Apr - 11:05:23 10° SSE 11:08:48 18° ESE 11:12:02 10° ENE daylight
20 Apr - 12:47:10 10° SW 12:51:41 35° WNW 12:55:54 10° N daylight
20 Apr - 21:37:47 10° NNW 21:42:11 48° ENE 21:46:56 10° SE daylight
20 Apr - 23:22:49 10° W 23:24:58 13° WSW 23:27:10 10° SW daylight
21 Apr - 10:33:26 10° ESE 10:34:45 11° ESE 10:36:02 10° E visible
21 Apr - 12:12:35 10° SW 12:17:29 57° WNW 12:22:00 10° NNE daylight
21 Apr - 21:03:58 10° N 21:07:58 30° ENE 21:12:14 10° ESE daylight
21 Apr - 22:47:23 10° WNW 22:50:54 21° WSW 22:54:38 10° SSW daylight
22 Apr - 11:38:18 10° SSW 11:43:20 87° ESE 11:47:55 10° NNE daylight
22 Apr - 20:30:24 10° N 20:33:42 19° ENE 20:37:09 10° ESE daylight
22 Apr - 22:12:37 10° NW 22:16:48 34° WSW 22:21:19 10° S daylight
23 Apr - 11:04:19 10° S 11:09:11 53° ESE 11:13:39 10° NE daylight
23 Apr - 12:50:12 10° W 12:52:28 13° NW 12:54:42 10° NNW daylight
23 Apr - 19:57:25 10° NNE 19:59:21 12° NE 20:01:21 10° E daylight
23 Apr - 21:38:11 10° NW 21:42:41 57° WSW 21:47:35 10° S daylight
24 Apr - 10:30:39 10° S 10:35:04 32° ESE 10:39:11 10° NE visible
24 Apr - 12:14:33 10° WSW 12:18:09 21° WNW 12:21:34 10° N daylight
24 Apr - 21:03:57 10° NNW 21:08:33 87° ENE 21:13:33 10° SSE daylight
25 Apr - 09:57:24 10° SSE 10:00:59 20° ESE 10:04:21 10° ENE visible
25 Apr - 11:39:32 10° SW 11:43:53 32° WNW 11:47:58 10° N daylight
25 Apr - 20:29:53 10° NNW 20:34:22 53° ENE 20:39:15 10° SE daylight
25 Apr - 22:15:22 10° W 22:17:08 12° WSW 22:18:57 10° SW daylight
26 Apr - 09:25:05 10° SE 09:26:55 12° ESE 09:28:43 10° E visible
26 Apr - 11:04:54 10° SW 11:09:41 51° WNW 11:14:07 10° NNE daylight
26 Apr - 19:56:01 10° N 20:00:10 33° ENE 20:04:37 10° SE daylight
26 Apr - 21:39:41 10° WNW 21:43:05 20° WSW 21:46:40 10° SSW daylight
27 Apr - 10:30:33 10° SSW 10:35:31 85° WNW 10:40:04 10° NNE visible
27 Apr - 19:22:23 10° N 19:25:55 21° ENE 19:29:38 10° ESE daylight
27 Apr - 21:04:51 10° NW 21:08:59 32° WSW 21:13:27 10° S daylight
